#timestamp,LO_Frequency,Hit,StdDev 
1510081215.5,286047002.6,N
1510081235.4,286047004.3,N
1510081255.2,286047002.1,N
1510081275.1,286046999.8,N
1510081276.0,286046999.8,N
1510081295.8,286047002.6,N
1510081315.6,286047001.8,N
1510081335.5,286047002.2,N
1510081355.3,286047000.2,N
1510081375.2,286047001.3,N
1510081395.0,286047004.7,N
1510081395.9,286047004.7,N
1510081415.8,286047001.8,N
1510081435.6,286046999.8,N
1510081455.5,286046995.0,N
1510081475.3,286046995.5,N
1510081495.1,286046995.2,N
1510081515.9,286046995.0,N
1510081535.7,286046992.3,N
1510081555.6,286046989.1,Y
1510081575.4,286046991.4,P
1510081595.3,286046992.1,N
1510081615.1,286046995.1,N
1510081635.8,286046999.0,N
1510081655.7,286047002.1,N
1510081675.5,286047001.9,N
1510081695.4,286046997.0,N
1510081715.2,286046998.1,N
1510081735.0,286047000.6,N
1510081736.0,286047000.6,N
1510081755.8,286046999.1,N
1510081775.6,286046999.5,N
1510081795.5,286046998.3,N
1510081815.3,286047000.8,N
1510081835.1,286046998.1,N
1510081855.9,286047003.1,N
1510081875.7,286047005.8,N
1510081895.6,286047003.1,N
1510081915.4,286047004.6,N
1510081935.2,286047005.5,N
1510081955.1,286047007.3,N
1510081956.0,286047007.3,N
1510081975.8,286047008.4,N
1510081995.7,286047011.9,N
1510082015.5,286047013.7,N
1510082035.3,286047008.4,N
1510082055.2,286047010.6,N
1510082075.0,286047012.4,N
1510082075.9,286047012.4,N
1510082095.8,286047011.7,N
1510082115.6,286047009.5,N
1510082135.5,286047012.3,N
1510082155.3,286047010.9,N
1510082175.1,286047017.2,Y
1510082195.9,286047009.4,P
1510082215.7,286047009.0,P
1510082235.6,286047004.3,N
1510082255.4,286047005.6,N
1510082275.2,286047006.2,N
1510082295.1,286047011.5,Y
1510082315.8,286047004.8,P
1510082335.7,286047007.6,P
1510082355.5,286047008.7,P
1510082375.4,286047006.5,Y
1510082395.2,286047002.2,P
1510082415.0,286047000.0,N
1510082416.0,286047000.0,N
1510082435.8,286047001.0,N
1510082455.6,286047002.1,N
1510082475.5,286047001.6,N
1510082495.3,286047002.5,N
1510082515.1,286046998.3,N
1510082535.9,286046997.8,N
1510082555.7,286046995.9,N
1510082575.6,286046996.4,N
1510082595.4,286047001.0,N
1510082615.2,286047000.0,N
1510082635.1,286046999.8,N
1510082636.0,286046999.8,N
1510082655.8,286046998.8,N
1510082675.7,286046997.3,N
1510082695.5,286046997.7,N
1510082715.4,286046996.8,N
1510082735.2,286047001.5,N
1510082755.0,286047002.4,N
1510082755.9,286047002.4,N
1510082775.8,286046996.7,N
1510082795.6,286046994.3,N
1510082815.5,286046996.0,N
1510082835.3,286046994.7,N
1510082855.1,286046997.7,N
1510082875.9,286046993.3,N
1510082895.7,286046996.9,N
1510082915.6,286046995.5,N
1510082935.4,286046993.8,N
1510082955.2,286046998.0,N
1510082975.1,286046994.4,N
1510082976.0,286046994.4,N
1510082995.8,286046993.8,N
1510083015.7,286046996.4,N
1510083035.5,286046995.8,N
1510083055.3,286046995.9,N
1510083075.2,286046997.3,N
1510083095.0,286046995.3,N
1510083095.9,286046995.3,N
1510083115.8,286046991.7,Y
1510083135.6,286046995.6,P
1510083155.5,286046996.1,P
1510083175.3,286046994.3,P
1510083195.1,286046992.4,Y
1510083215.9,286046998.6,P
1510083235.7,286047000.9,N
1510083255.6,286047001.5,N
1510083275.4,286047003.3,N
1510083295.3,286047004.8,N
1510083315.1,286047008.1,N
1510083335.8,286047012.9,Y
1510083355.7,286047010.7,P
1510083375.5,286047007.9,N
1510083395.4,286047006.5,N
1510083415.2,286047004.5,N
1510083435.0,286047008.9,N
1510083436.0,286047008.9,Y
1510083455.8,286046997.9,P
1510083475.6,286046997.8,N
1510083495.5,286047000.7,N
1510083515.3,286046998.2,N
1510083535.2,286046998.2,N
1510083555.9,286046999.5,N
1510083575.7,286046997.4,N
1510083595.6,286046997.0,N
1510083615.4,286046998.6,N
1510083635.3,286046999.5,N
1510083655.1,286047001.6,N
1510083675.8,286047006.0,N
1510083695.7,286047004.9,N
1510083715.5,286047003.7,N
1510083735.4,286047005.4,N
1510083755.2,286047005.2,N
1510083775.0,286047006.4,N
1510083776.0,286047006.4,N
1510083795.8,286047005.7,N
1510083815.6,286047007.3,N
1510083835.5,286047005.5,N
1510083855.3,286047004.0,N
1510083875.1,286047002.1,N
1510083895.9,286046999.5,N
1510083915.7,286046995.8,N
1510083935.6,286046999.6,N
1510083955.4,286046997.2,N
1510083975.3,286046996.6,N
1510083995.1,286046999.2,N
1510084015.8,286046998.5,N
1510084035.7,286047004.0,N
1510084055.5,286047001.6,N
1510084075.4,286046999.8,N
1510084095.2,286047000.7,N
1510084115.0,286046999.8,N
1510084115.9,286046999.8,N
1510084135.8,286047001.8,N
1510084155.6,286047001.4,N
1510084175.5,286047005.7,N
1510084195.3,286047003.0,N
1510084215.1,286047004.5,N
1510084235.9,286047003.0,N
1510084255.7,286047002.7,N
1510084275.6,286047005.5,N
1510084295.4,286047001.1,N
1510084315.2,286047000.8,N
1510084335.1,286046999.8,N
1510084336.0,286046999.8,N
1510084355.8,286047000.3,N
1510084375.7,286047000.0,N
1510084395.5,286047002.1,N
1510084415.3,286047002.4,N
1510084435.2,286046998.5,N
1510084455.0,286047000.8,N
1510084455.9,286047000.8,N
1510084475.8,286047000.9,N
1510084495.6,286046994.9,N
1510084515.4,286046996.7,N
1510084535.3,286046999.2,N
1510084555.1,286046998.2,N
1510084575.9,286047004.0,N
1510084595.7,286047004.9,N
1510084615.6,286047006.9,N
1510084635.4,286047009.3,Y
1510084655.3,286047006.3,P
1510084675.1,286047002.9,N
1510084676.0,286047002.9,N
1510084695.8,286047003.9,N
1510084715.7,286046993.7,Y
1510084735.5,286046990.7,P
1510084755.4,286046988.2,N
1510084775.2,286046986.6,N
1510084795.0,286046988.1,N
1510084795.9,286046988.1,N
